TimeCDT,TemperatureF,Dew PointF,Humidity,Sea Level PressureIn,VisibilityMPH,Wind Direction,Wind SpeedMPH,Gust SpeedMPH,PrecipitationIn,Events,Conditions,WindDirDegrees,DateUTC
12:15 AM,24.6,23.5,96,30.11,10.0,Calm,Calm,-,N/A,,Clear,0,2014-04-23 05:15:00
12:35 AM,23.9,23.0,96,30.12,10.0,Calm,Calm,-,N/A,,Clear,0,2014-04-23 05:35:00
12:55 AM,23.7,22.6,96,30.12,10.0,Calm,Calm,-,N/A,,Clear,0,2014-04-23 05:55:00
1:15 AM,23.0,22.1,96,30.12,10.0,Calm,Calm,-,N/A,,Clear,0,2014-04-23 06:15:00
1:35 AM,22.5,21.6,96,30.12,10.0,Calm,Calm,-,N/A,,Clear,0,2014-04-23 06:35:00
1:55 AM,21.9,21.0,96,30.13,10.0,Calm,Calm,-,N/A,,Clear,0,2014-04-23 06:55:00
2:15 AM,21.9,21.0,96,30.13,10.0,Calm,Calm,-,N/A,,Clear,0,2014-04-23 07:15:00
2:35 AM,22.1,21.0,96,30.13,10.0,Calm,Calm,-,N/A,,Clear,0,2014-04-23 07:35:00
2:55 AM,20.8,19.4,94,30.13,10.0,Calm,Calm,-,N/A,,Clear,0,2014-04-23 07:55:00
3:15 AM,20.3,19.4,96,30.13,10.0,Calm,Calm,-,N/A,,Clear,0,2014-04-23 08:15:00
3:55 AM,19.9,18.9,96,30.14,10.0,Calm,Calm,-,N/A,,Clear,0,2014-04-23 08:55:00
4:15 AM,20.1,18.9,95,30.13,10.0,Calm,Calm,-,N/A,,Clear,0,2014-04-23 09:15:00
4:35 AM,18.9,17.4,94,30.14,10.0,Calm,Calm,-,N/A,,Clear,0,2014-04-23 09:35:00
4:55 AM,19.0,17.8,95,30.14,10.0,Calm,Calm,-,N/A,,Clear,0,2014-04-23 09:55:00
5:15 AM,18.5,16.9,93,30.14,10.0,Calm,Calm,-,N/A,,Clear,0,2014-04-23 10:15:00
5:35 AM,19.4,17.8,93,30.14,10.0,Calm,Calm,-,N/A,,Clear,0,2014-04-23 10:35:00
5:55 AM,18.1,16.5,93,30.14,10.0,Calm,Calm,-,N/A,,Clear,0,2014-04-23 10:55:00
6:15 AM,18.3,16.9,94,30.15,10.0,Calm,Calm,-,N/A,,Clear,0,2014-04-23 11:15:00
6:35 AM,19.6,18.3,95,30.15,10.0,Calm,Calm,-,N/A,,Clear,0,2014-04-23 11:35:00
6:55 AM,22.5,21.2,95,30.16,10.0,Calm,Calm,-,N/A,,Clear,0,2014-04-23 11:55:00
7:15 AM,25.3,23.7,94,30.15,10.0,Calm,Calm,-,N/A,,Clear,0,2014-04-23 12:15:00
7:35 AM,28.4,26.1,91,30.16,10.0,Calm,Calm,-,N/A,,Clear,0,2014-04-23 12:35:00
7:55 AM,31.3,27.5,86,30.17,10.0,Calm,Calm,-,N/A,,Clear,0,2014-04-23 12:55:00
8:15 AM,32.9,29.1,86,30.16,10.0,Calm,Calm,-,N/A,,Clear,0,2014-04-23 13:15:00
8:35 AM,36.0,27.5,71,30.17,10.0,Calm,Calm,-,N/A,,Clear,0,2014-04-23 13:35:00
8:55 AM,39.0,25.9,59,30.17,10.0,Calm,Calm,-,N/A,,Clear,0,2014-04-23 13:55:00
9:15 AM,40.5,25.9,56,30.16,10.0,Calm,Calm,-,N/A,,Clear,0,2014-04-23 14:15:00
9:35 AM,41.0,25.0,53,30.15,10.0,Calm,Calm,-,N/A,,Clear,0,2014-04-23 14:35:00
9:55 AM,43.0,24.6,48,30.15,10.0,NE,3.5,-,N/A,,Clear,50,2014-04-23 14:55:00
10:15 AM,43.7,24.3,46,30.15,10.0,Calm,Calm,-,N/A,,Clear,0,2014-04-23 15:15:00
10:35 AM,44.8,23.7,44,30.14,10.0,East,8.1,-,N/A,,Clear,90,2014-04-23 15:35:00
10:55 AM,45.5,22.8,41,30.13,10.0,ESE,5.8,-,N/A,,Clear,120,2014-04-23 15:55:00
11:15 AM,46.4,20.8,36,30.13,10.0,SE,6.9,-,N/A,,Clear,130,2014-04-23 16:15:00
11:35 AM,46.6,20.7,36,30.13,10.0,SE,5.8,-,N/A,,Clear,140,2014-04-23 16:35:00
11:55 AM,47.5,19.8,33,30.14,10.0,East,3.5,-,N/A,,Clear,90,2014-04-23 16:55:00
12:15 PM,48.2,16.5,28,30.14,10.0,South,5.8,-,N/A,,Clear,170,2014-04-23 17:15:00
12:35 PM,48.4,16.7,28,30.14,10.0,ESE,3.5,-,N/A,,Clear,120,2014-04-23 17:35:00
12:55 PM,49.1,18.3,30,30.13,10.0,SE,4.6,-,N/A,,Clear,140,2014-04-23 17:55:00
1:15 PM,49.5,18.3,29,30.12,10.0,Calm,Calm,-,N/A,,Clear,0,2014-04-23 18:15:00
1:35 PM,50.9,15.1,24,30.12,10.0,SSE,5.8,-,N/A,,Clear,160,2014-04-23 18:35:00
1:55 PM,51.8,16.3,25,30.12,10.0,SE,6.9,-,N/A,,Clear,140,2014-04-23 18:55:00
2:15 PM,52.2,16.5,24,30.11,10.0,East,6.9,-,N/A,,Clear,80,2014-04-23 19:15:00
2:55 PM,52.7,16.0,23,30.09,10.0,SE,6.9,-,N/A,,Clear,140,2014-04-23 19:55:00
3:15 PM,53.4,16.2,23,30.09,10.0,ENE,3.5,-,N/A,,Clear,70,2014-04-23 20:15:00
3:35 PM,53.1,15.8,23,30.09,10.0,East,4.6,-,N/A,,Clear,90,2014-04-23 20:35:00
3:55 PM,53.2,14.4,21,30.08,10.0,Calm,Calm,-,N/A,,Clear,0,2014-04-23 20:55:00
4:15 PM,54.1,16.2,22,30.07,10.0,South,5.8,-,N/A,,Clear,170,2014-04-23 21:15:00
4:35 PM,53.1,14.9,22,30.07,10.0,SSE,5.8,-,N/A,,Clear,160,2014-04-23 21:35:00
4:55 PM,53.2,15.1,22,30.06,10.0,SE,3.5,-,N/A,,Clear,130,2014-04-23 21:55:00
5:15 PM,53.2,16.3,23,30.06,10.0,SSE,4.6,-,N/A,,Clear,160,2014-04-23 22:15:00
5:35 PM,53.4,16.0,23,30.06,10.0,SSE,5.8,-,N/A,,Clear,160,2014-04-23 22:35:00
6:15 PM,52.7,18.1,26,30.05,10.0,South,4.6,-,N/A,,Clear,180,2014-04-23 23:15:00
6:35 PM,51.8,17.8,26,30.05,10.0,South,4.6,-,N/A,,Clear,190,2014-04-23 23:35:00
6:55 PM,50.9,17.8,27,30.05,10.0,South,4.6,-,N/A,,Clear,180,2014-04-23 23:55:00
7:15 PM,50.0,18.1,28,30.04,10.0,South,3.5,-,N/A,,Clear,180,2014-04-24 00:15:00
7:35 PM,49.1,18.0,29,30.03,10.0,SSE,3.5,-,N/A,,Clear,160,2014-04-24 00:35:00
7:55 PM,47.8,17.6,30,30.03,10.0,SSE,3.5,-,N/A,,Clear,160,2014-04-24 00:55:00
8:15 PM,46.2,18.0,32,30.03,10.0,Calm,Calm,-,N/A,,Clear,0,2014-04-24 01:15:00
8:35 PM,43.5,19.8,39,30.03,10.0,Calm,Calm,-,N/A,,Clear,0,2014-04-24 01:35:00
8:55 PM,42.8,19.4,39,30.03,10.0,SSE,3.5,-,N/A,,Clear,150,2014-04-24 01:55:00
9:15 PM,44.4,18.7,36,30.04,10.0,SSE,4.6,-,N/A,,Clear,160,2014-04-24 02:15:00
9:35 PM,45.0,18.3,35,30.04,10.0,South,4.6,-,N/A,,Clear,170,2014-04-24 02:35:00
9:55 PM,44.8,19.8,37,30.05,10.0,South,6.9,-,N/A,,Clear,180,2014-04-24 02:55:00
10:15 PM,44.1,20.3,39,30.06,10.0,SSE,3.5,-,N/A,,Clear,160,2014-04-24 03:15:00
10:35 PM,43.5,18.9,37,30.06,10.0,South,4.6,-,N/A,,Clear,170,2014-04-24 03:35:00
10:55 PM,43.0,14.7,32,30.06,10.0,South,6.9,-,N/A,,Scattered Clouds,170,2014-04-24 03:55:00
11:15 PM,42.4,13.8,31,30.07,10.0,South,4.6,-,N/A,,Mostly Cloudy,170,2014-04-24 04:15:00
11:35 PM,41.9,14.0,32,30.06,10.0,South,4.6,-,N/A,,Overcast,170,2014-04-24 04:35:00
11:55 PM,41.2,14.2,33,30.07,10.0,SE,4.6,-,N/A,,Overcast,140,2014-04-24 04:55:00